Location: Franzen
(48.6167°N, 15.3833°E)
Time: 09:00:49
(UTC+00:00)

Cosmos 1709 Rocket - Pass Details

Date: 05 August 2021
Orbit: 947 x 1002 km, 82.9° (Epoch: 18 September)

Event Time Altitude Azimuth Distance (km) Brightness Sun altitude
Exits shadow 00:45:51 12° 265° (W) 2,658 6.0 -20.7°
Maximum altitude 00:49:20 17° 301° (WNW) 2,291 6.0 -20.4°
Drops below altitude 10° 00:53:25 10° 341° (NNW) 2,787 7.0 -20.1°
Sets 00:57:00 0° 0° (N) 3,741 8.1 -19.8°
